FENGYUN 1C DEB

Satellite information

Favourite Embed

Satellite Type and Status

DEBRISIN ORBIT

Key statistics

Satellite FENGYUN 1C DEB at a glance.

Uptime

9496

Days in orbit

Revolutions

≈ 14.5

Per day

Orbit

SSO

Sun Synchronous Orbit

Inclination

99.0

Latest

Satellite identification and parameters

Extended collection of information and parameters for FENGYUN 1C DEB.

Object identification

Identified? True

Debris? True

Object name: FENGYUN 1C DEB

International designator: 1999-025CRT

Object number (NORAD): 32125

Object ID (CCSDS): 32125

Country: PEOPLES REPUBLIC OF CHINA (PRC)

Current information (Y/N): Y

RCS size: SMALL

Orbital parameters

Period: 99.447 minutes

Inclination: 99.0288 deg

SMA: 7110.311 km

Apoapsis: 899.637 km

Periapsis: 564.716 km

RAAN: 160.102 deg

Eccentricy: 0.0235518

Argument of periapsis: 353.9696 deg

Mean anomaly: 5.8671 deg

Mean motion: 14.48004274 rev/day

Mean motion (dot): 0.00041691 rev/day2

B* drag term: 0.0078711 1/REarth

Two-line elements (TLE)

Creation date: April 9, 2025, 5:06 p.m.

Reference frame: TEME

Reference center: EARTH

Epoch: Aug. 16, 2024, 2:12 p.m. UTC

TLE line 0: 0 FENGYUN 1C DEB

TLE line 1: 1 32125U 99025CRT 24229.59215454 .00041691 00000-0 78711-2 0 9999

TLE line 2: 2 32125 99.0288 160.1020 0235518 353.9696 5.8671 14.48004274896695

Live tracking on map

Real-time ground track for satellite FENGYUN 1C DEB.

In-orbit conjunctions

A list of the most updated potential collisions computed for object FENGYUN 1C DEB.

Target Orbit TCA Probability of collision Miss distance Type
DUMSAT LEO 2024-08-25 20:10:42 0.0001464491 784.0 (m) PAYLOAD

Associated space launch

Chinese polar orbiting meteorological satellite

FENGYUN 1C DEB was lifted into orbit during the mission ‘Long March 4B | Feng Yun 1C’, on board a Long March 4B space rocket.

The launch took place on May 10, 1999, 1:33 a.m. from Launch Complex 7.

For more information about the launch, click the button.

Launch to space Long March 4B | Feng Yun 1C
Long March 4B | Feng Yun 1C

Agency: N/A

Status: Launch Successful

Launch date: May 10, 1999, 1:33 a.m. UTC

Rocket: Long March 4B

Launch pad: Launch Complex 7

Location: Taiyuan Satellite Launch Center, People's Republic of China

...

Latest news about this satellite

There are no fresh news available about this satellite. Check back as we update our databases every day.


Newsletter sign-up

Weekly statistics, charts and insights to help you stay on top of the space industry.